Weather History for New Richmond, WI

Change the Weather History Date:

Friday, October 26, 2012

  Actual Average (KMSP) Record (KMSP)
Temperature  
Mean Temperature 34 °F 45 °F  
Max Temperature 37 °F 53 °F 83 °F (1955)
Min Temperature 30 °F 36 °F 16 °F (1962)
Degree Days  
Heating Degree Days 32 20  
Month to date heating degree days 397  
Since 1 July heating degree days 570  
Cooling Degree Days 0 0  
Month to date cooling degree days 3  
Year to date cooling degree days 750  
Moisture  
Dew Point 25 °F    
Average Humidity 69    
Maximum Humidity 87    
Minimum Humidity 52    
Precipitation  
Precipitation 0.00 in 0.06 in 1.54 in (1941)
Month to date precipitation 2.12  
Year to date precipitation 27.37  
Snow  
Snow 0.00 in 0.10 in 1.30 in (1959)
Month to date snowfall 0.4  
Since 1 July snowfall 0.4  
Since 1 September snowfall 0.4  
Snow Depth -    
Sea Level Pressure  
Sea Level Pressure 30.28 in    
Wind  
Wind Speed 11 mph (West)    
Max Wind Speed 17 mph    
Max Gust Speed 28 mph    
Visibility 10 miles    
Events      
T = Trace of Precipitation, MM = Missing Value Source: NWS Daily Summary

Daily Weather History Graph

Daily Weather History Graph

Search for Another Location

Airport:

Trip Planner

Search our weather history database for the weather conditions in past years. The results will help you decide how hot, cold, wet, or windy it might be!

Date:

Astronomy

Oct. 26, 2012 Rise Set
Actual Time 7:41 AM CDT 6:06 PM CDT
Civil Twilight 7:11 AM CDT 6:36 PM CDT
Nautical Twilight 6:36 AM CDT 7:10 PM CDT
Astronomical Twilight 6:02 AM CDT 7:44 PM CDT
Moon 4:27 PM CDT (10/26) 4:31 AM CDT (10/26)
Length of Visible Light 11h 25m
Length of Day
10h 24m
Waxing Gibbous, 91% of the Moon is Illuminated
Oct 26
Waxing Gibbous
Oct 29
Full
Nov 6
Last Quarter
Nov 13
New
Nov 20
First Quarter

Hourly Weather History & Observations

Time (CDT) Temp. Windchill Dew Point Humidity Pressure Visibility Wind Dir Wind Speed Gust Speed Precip Events Conditions
12:15 AM 35.6 °F 27.5 °F 28.4 °F 75% 30.12 in 10.0 mi West 11.5 mph - N/A   Overcast
12:35 AM 35.6 °F 27.5 °F 28.4 °F 75% 30.12 in 10.0 mi West 11.5 mph - N/A   Overcast
1:15 AM 35.6 °F 27.5 °F 26.6 °F 70% 30.14 in 10.0 mi West 11.5 mph - N/A   Overcast
1:35 AM 33.8 °F 25.3 °F 26.6 °F 75% 30.14 in 10.0 mi West 11.5 mph - N/A   Scattered Clouds
1:55 AM 33.8 °F 24.8 °F 28.4 °F 81% 30.15 in 10.0 mi West 12.7 mph - N/A   Clear
2:15 AM 33.8 °F 24.3 °F 26.6 °F 75% 30.15 in 10.0 mi West 13.8 mph - N/A   Clear
2:35 AM 33.8 °F 25.8 °F 26.6 °F 75% 30.16 in 10.0 mi West 10.4 mph - N/A   Clear
2:55 AM 32.0 °F 22.5 °F 26.6 °F 80% 30.16 in 10.0 mi West 12.7 mph 17.3 mph N/A   Clear
3:15 AM 32.0 °F 23.0 °F 26.6 °F 80% 30.17 in 10.0 mi West 11.5 mph 17.3 mph N/A   Clear
3:35 AM 32.0 °F 23.6 °F 26.6 °F 80% 30.17 in 10.0 mi West 10.4 mph - N/A   Clear
3:55 AM 32.0 °F 24.2 °F 26.6 °F 80% 30.17 in 10.0 mi West 9.2 mph - N/A   Clear
4:15 AM 32.0 °F 24.2 °F 26.6 °F 80% 30.17 in 10.0 mi West 9.2 mph - N/A   Clear
4:35 AM 32.0 °F 24.8 °F 26.6 °F 80% 30.18 in 10.0 mi West 8.1 mph - N/A   Clear
4:55 AM 32.0 °F 23.6 °F 26.6 °F 80% 30.18 in 10.0 mi West 10.4 mph - N/A   Clear
5:15 AM 32.0 °F 24.2 °F 28.4 °F 87% 30.18 in 10.0 mi West 9.2 mph - N/A   Clear
5:35 AM 32.0 °F 24.2 °F 26.6 °F 80% 30.19 in 10.0 mi West 9.2 mph - N/A   Clear
5:55 AM 32.0 °F 23.6 °F 26.6 °F 80% 30.20 in 10.0 mi West 10.4 mph - N/A   Clear
6:15 AM 32.0 °F 23.6 °F 28.4 °F 87% 30.21 in 10.0 mi West 10.4 mph - N/A   Clear
6:35 AM 30.2 °F 21.9 °F 26.6 °F 86% 30.22 in 10.0 mi West 9.2 mph - N/A   Clear
6:55 AM 32.0 °F 24.2 °F 28.4 °F 87% 30.23 in 10.0 mi West 9.2 mph - N/A   Mostly Cloudy
7:15 AM 32.0 °F 24.8 °F 28.4 °F 87% 30.24 in 10.0 mi West 8.1 mph - N/A   Overcast
7:55 AM 32.0 °F 23.6 °F 28.4 °F 87% 30.26 in 10.0 mi West 10.4 mph - N/A   Overcast
8:55 AM 33.8 °F 24.8 °F 26.6 °F 75% 30.29 in 10.0 mi West 12.7 mph - N/A   Overcast
9:15 AM 33.8 °F 24.8 °F 26.6 °F 75% 30.30 in 10.0 mi West 12.7 mph - N/A   Overcast
9:35 AM 33.8 °F 25.8 °F 26.6 °F 75% 30.31 in 10.0 mi West 10.4 mph 17.3 mph N/A   Overcast
9:55 AM 33.8 °F 25.3 °F 26.6 °F 75% 30.31 in 10.0 mi West 11.5 mph 16.1 mph N/A   Overcast
10:15 AM 35.6 °F 28.0 °F 28.4 °F 75% 30.32 in 10.0 mi West 10.4 mph 16.1 mph N/A   Overcast
10:35 AM 35.6 °F 27.1 °F 26.6 °F 70% 30.32 in 10.0 mi West 12.7 mph 17.3 mph N/A   Overcast
10:55 AM 35.6 °F 26.6 °F 26.6 °F 70% 30.33 in 10.0 mi West 13.8 mph 18.4 mph N/A   Overcast
11:15 AM 35.6 °F 26.6 °F 23.0 °F 60% 30.33 in 10.0 mi West 13.8 mph 27.6 mph N/A   Overcast
11:35 AM 35.6 °F 26.2 °F 23.0 °F 60% 30.33 in 10.0 mi WNW 15.0 mph 23.0 mph N/A   Overcast
11:55 AM 35.6 °F 26.2 °F 23.0 °F 60% 30.34 in 10.0 mi WNW 15.0 mph 19.6 mph N/A   Overcast
12:15 PM 37.4 °F 27.8 °F 23.0 °F 56% 30.34 in 10.0 mi WNW 17.3 mph 21.9 mph N/A   Overcast
12:35 PM 37.4 °F 28.5 °F 23.0 °F 56% 30.33 in 10.0 mi WNW 15.0 mph 19.6 mph N/A   Overcast
12:55 PM 37.4 °F 28.5 °F 23.0 °F 56% 30.33 in 10.0 mi West 15.0 mph - N/A   Overcast
1:15 PM 37.4 °F 28.5 °F 23.0 °F 56% 30.32 in 10.0 mi West 15.0 mph - N/A   Overcast
1:35 PM 37.4 °F 28.9 °F 23.0 °F 56% 30.32 in 10.0 mi WNW 13.8 mph - N/A   Overcast
1:55 PM 37.4 °F 30.3 °F 23.0 °F 56% 30.32 in 10.0 mi West 10.4 mph - N/A   Overcast
2:15 PM 37.4 °F 28.2 °F 23.0 °F 56% 30.32 in 10.0 mi West 16.1 mph - N/A   Overcast
2:35 PM 37.4 °F 27.8 °F 21.2 °F 52% 30.32 in 10.0 mi West 17.3 mph 24.2 mph N/A   Overcast
2:55 PM 37.4 °F 27.8 °F 23.0 °F 56% 30.32 in 10.0 mi West 17.3 mph 24.2 mph N/A   Overcast
3:15 PM 37.4 °F 28.9 °F 23.0 °F 56% 30.32 in 10.0 mi West 13.8 mph 18.4 mph N/A   Overcast
3:35 PM 35.6 °F 25.9 °F 21.2 °F 56% 30.32 in 10.0 mi West 16.1 mph 20.7 mph N/A   Overcast
3:55 PM 35.6 °F 27.1 °F 21.2 °F 56% 30.32 in 10.0 mi WNW 12.7 mph - N/A   Overcast
4:15 PM 35.6 °F 25.5 °F 21.2 °F 56% 30.31 in 10.0 mi West 17.3 mph 20.7 mph N/A   Overcast
4:35 PM 35.6 °F 26.2 °F 21.2 °F 56% 30.31 in 10.0 mi West 15.0 mph - N/A   Overcast
4:55 PM 35.6 °F 27.1 °F 23.0 °F 60% 30.31 in 10.0 mi West 12.7 mph - N/A   Overcast
5:15 PM 35.6 °F 28.6 °F 23.0 °F 60% 30.31 in 10.0 mi West 9.2 mph - N/A   Overcast
5:35 PM 35.6 °F 30.7 °F 23.0 °F 60% 30.31 in 10.0 mi West 5.8 mph - N/A   Overcast
5:55 PM 35.6 °F 31.7 °F 23.0 °F 60% 30.31 in 10.0 mi West 4.6 mph - N/A   Overcast
6:15 PM 35.6 °F 30.7 °F 23.0 °F 60% 30.31 in 10.0 mi West 5.8 mph - N/A   Overcast
6:35 PM 35.6 °F 28.6 °F 23.0 °F 60% 30.32 in 10.0 mi West 9.2 mph - N/A   Overcast
6:55 PM 35.6 °F 31.7 °F 23.0 °F 60% 30.32 in 10.0 mi West 4.6 mph - N/A   Overcast
7:15 PM 35.6 °F 30.7 °F 23.0 °F 60% 30.33 in 10.0 mi West 5.8 mph - N/A   Overcast
7:35 PM 35.6 °F 31.7 °F 24.8 °F 65% 30.33 in 10.0 mi West 4.6 mph - N/A   Overcast
7:55 PM 35.6 °F 30.7 °F 24.8 °F 65% 30.33 in 10.0 mi West 5.8 mph - N/A   Overcast
8:15 PM 35.6 °F 30.7 °F 24.8 °F 65% 30.33 in 10.0 mi West 5.8 mph - N/A   Overcast
8:35 PM 35.6 °F 30.7 °F 24.8 °F 65% 30.33 in 10.0 mi West 5.8 mph - N/A   Overcast
8:55 PM 35.6 °F 28.6 °F 24.8 °F 65% 30.33 in 10.0 mi West 9.2 mph - N/A   Overcast
9:15 PM 35.6 °F 28.6 °F 23.0 °F 60% 30.33 in 10.0 mi West 9.2 mph - N/A   Overcast
9:35 PM 33.8 °F 27.0 °F 24.8 °F 70% 30.33 in 10.0 mi West 8.1 mph - N/A   Overcast
9:55 PM 33.8 °F 27.7 °F 24.8 °F 70% 30.33 in 10.0 mi West 6.9 mph - N/A   Overcast
10:15 PM 33.8 °F 28.6 °F 24.8 °F 70% 30.33 in 10.0 mi West 5.8 mph - N/A   Overcast
10:35 PM 32.0 °F 26.4 °F 24.8 °F 75% 30.33 in 10.0 mi West 5.8 mph - N/A   Overcast
10:55 PM 32.0 °F 27.5 °F 24.8 °F 75% 30.33 in 10.0 mi West 4.6 mph - N/A   Overcast
11:15 PM 32.0 °F 26.4 °F 24.8 °F 75% 30.33 in 10.0 mi West 5.8 mph - N/A   Scattered Clouds
11:35 PM 32.0 °F 27.5 °F 24.8 °F 75% 30.33 in 10.0 mi West 4.6 mph - N/A   Clear
11:55 PM 30.2 °F 25.4 °F 24.8 °F 80% 30.33 in 10.0 mi WSW 4.6 mph - N/A   Clear